Skip Page Navigation
NASA JPL Caltech
NASA Logo - Jet Propulsion Laboratory + View the NASA Portal
+ Center for Near-Earth Object Studies
JPL Home Earth Solar System Stars & Galaxies Technology
JPL Solar System Dynamics
BODIES ORBITS EPHEMERIDES TOOLS PHYSICAL DATA DISCOVERY FAQ SITE MAP
JPL Small-Body Database Browser
Search: [ help ]  
181525 (2006 UP117)
Classification: Main-belt Asteroid          SPK-ID: 2181525
Ephemeris | Orbit Diagram | Orbital Elements | Mission Design | Physical Parameters | Discovery Circumstances | Close-Approach Data ]

[ show orbit diagram ]
Orbital Elements at Epoch 2459200.5 (2020-Dec-17.0) TDB
Reference: JPL 13 (heliocentric ecliptic J2000)
 Element Value Uncertainty (1-sigma)   Units 
e .2694641095927559 5.3013e-08  
a 2.406877676272666 1.8246e-08 au
q 1.758310526337171 1.2262e-07 au
i 8.663828422172138 4.9369e-06 deg
node 204.4077555439939 4.038e-05 deg
peri 348.1197157600099 4.2515e-05 deg
M 132.4245761529205 1.9173e-05 deg
tp 2458698.798330770893
(2019-Aug-03.29833077)
6.8016e-05 TDB
period 1363.890345504385
3.73
1.5509e-05
4.246e-08
d
yr
n .2639508382668896 3.0015e-09 deg/d
Q 3.055444826208162 2.3163e-08 au
  Orbit Determination Parameters
   # obs. used (total)      359  
   data-arc span      8554 days (23.42 yr)  
   first obs. used      1997-05-07  
   last obs. used      2020-10-07  
   planetary ephem.      DE441  
   SB-pert. ephem.      SB441-N16  
   condition code      0  
   norm. resid. RMS      .55217  
   source      ORB  
   producer      Otto Matic  
   solution date      2021-Apr-13 21:30:57  

Additional Information
 Earth MOID = .757963 au 
 Jupiter MOID = 1.9083 au 
 T_jup = 3.457 
[ show covariance matrix ]

Ephemeris | Orbit Diagram | Orbital Elements | Mission Design | Physical Parameters | Discovery Circumstances | Close-Approach Data ]

Physical Parameter Table
Parameter Symbol Value Units Sigma Reference Notes
absolute magnitude H 16.24   n/a E2021B55  

181525 (2006 UP117)          Discovered 2006-Oct-19 by Spacewatch at Kitt Peak
Reference: 20080321/Numbers.arcLast Updated: 2008-03-26

[ show close-approach data ]
Ephemeris | Orbit Diagram | Orbital Elements | Mission Design | Physical Parameters | Discovery Circumstances | Close-Approach Data ]
ABOUT SSD CREDITS/AWARDS PRIVACY/COPYRIGHT GLOSSARY LINKS
FirstGov 2021-May-16 01:20 UT
(server date/time)  
NASA Home Page
Site Manager:   Ryan S. Park
Webmaster  Alan B. Chamberlin